Location: D�pe
(52.6057°N, 8.1808°E)
Time: 13:41:46
(UTC+00:00)

COSMOS 2455 - Pass Details

Date: 29 October 2020
Orbit: 899 x 911 km, 67.1° (Epoch: 28 November)

Event Time Altitude Azimuth Distance (km) Brightness Sun altitude
Rises 19:56:53 0° 320° (NW) 3,553 6.8 -35.5°
Reaches altitude 10° 19:59:28 10° 325° (NW) 2,609 5.9 -35.8°
Enters shadow 20:02:50 33° 341° (NNW) 1,497 4.2 -36.3°
